TimeEST,TemperatureF,Dew PointF,Humidity,Sea Level PressureIn,VisibilityMPH,Wind Direction,Wind SpeedMPH,Gust SpeedMPH,PrecipitationIn,Events,Conditions,WindDirDegrees,DateUTC
12:15 AM,62.6,55.4,77,30.00,10.0,SW,13.8,-,N/A,,Clear,220,2013-03-06 05:15:00
12:35 AM,62.6,55.4,77,29.99,10.0,SW,11.5,-,N/A,,Clear,220,2013-03-06 05:35:00
12:55 AM,62.6,55.4,77,29.99,10.0,SW,12.7,-,N/A,,Partly Cloudy,220,2013-03-06 05:55:00
1:15 AM,62.6,57.2,82,29.98,10.0,SSW,15.0,20.7,N/A,,Partly Cloudy,210,2013-03-06 06:15:00
1:35 AM,62.6,57.2,82,29.97,10.0,SW,15.0,20.7,N/A,,Scattered Clouds,220,2013-03-06 06:35:00
1:55 AM,64.4,57.2,77,29.96,10.0,SW,13.8,20.7,N/A,,Mostly Cloudy,220,2013-03-06 06:55:00
2:15 AM,64.4,57.2,77,29.96,9.0,SW,15.0,24.2,N/A,,Mostly Cloudy,220,2013-03-06 07:15:00
2:35 AM,64.4,57.2,77,29.94,10.0,SW,15.0,23.0,N/A,,Mostly Cloudy,220,2013-03-06 07:35:00
2:55 AM,62.6,59.0,88,29.93,10.0,SW,13.8,-,N/A,,Partly Cloudy,220,2013-03-06 07:55:00
3:15 AM,64.4,59.0,83,29.93,9.0,SW,12.7,18.4,N/A,,Scattered Clouds,220,2013-03-06 08:15:00
3:35 AM,64.4,59.0,83,29.92,9.0,SW,11.5,21.9,N/A,,Mostly Cloudy,230,2013-03-06 08:35:00
3:55 AM,64.4,60.8,88,29.92,9.0,SW,11.5,-,N/A,,Mostly Cloudy,220,2013-03-06 08:55:00
4:15 AM,64.4,60.8,88,29.92,9.0,SW,11.5,-,N/A,,Overcast,230,2013-03-06 09:15:00
4:35 AM,64.4,60.8,88,29.94,5.0,WSW,13.8,18.4,N/A,,Overcast,250,2013-03-06 09:35:00
4:55 AM,62.6,60.8,94,29.95,10.0,West,8.1,-,N/A,,Mostly Cloudy,270,2013-03-06 09:55:00
5:15 AM,62.6,60.8,94,29.96,9.0,West,5.8,-,N/A,,Mostly Cloudy,270,2013-03-06 10:15:00
5:35 AM,62.6,57.2,82,29.97,10.0,WNW,15.0,19.6,N/A,,Mostly Cloudy,300,2013-03-06 10:35:00
5:55 AM,60.8,46.4,59,29.99,10.0,WNW,16.1,25.3,N/A,,Mostly Cloudy,300,2013-03-06 10:55:00
6:15 AM,57.2,48.2,72,30.01,10.0,WNW,17.3,24.2,N/A,,Scattered Clouds,300,2013-03-06 11:15:00
6:35 AM,53.6,42.8,67,30.03,10.0,WNW,19.6,24.2,N/A,,Partly Cloudy,300,2013-03-06 11:35:00
7:15 AM,50.0,32.0,50,30.07,10.0,NW,13.8,25.3,N/A,,Partly Cloudy,320,2013-03-06 12:15:00
7:35 AM,48.2,32.0,54,30.08,10.0,NW,13.8,19.6,N/A,,Clear,320,2013-03-06 12:35:00
7:55 AM,48.2,32.0,54,30.09,10.0,NW,10.4,-,N/A,,Clear,310,2013-03-06 12:55:00
8:15 AM,51.8,33.8,50,30.10,10.0,WNW,12.7,-,N/A,,Clear,290,2013-03-06 13:15:00
8:35 AM,51.8,32.0,47,30.09,10.0,NW,17.3,21.9,N/A,,Clear,310,2013-03-06 13:35:00
8:55 AM,51.8,32.0,47,30.10,10.0,West,13.8,24.2,N/A,,Clear,280,2013-03-06 13:55:00
9:15 AM,51.8,30.2,44,30.10,10.0,West,13.8,21.9,N/A,,Clear,280,2013-03-06 14:15:00
9:35 AM,51.8,32.0,47,30.10,10.0,West,10.4,18.4,N/A,,Clear,260,2013-03-06 14:35:00
9:55 AM,53.6,28.4,38,30.09,10.0,WNW,16.1,24.2,N/A,,Clear,290,2013-03-06 14:55:00
10:15 AM,55.4,30.2,38,30.09,10.0,West,15.0,20.7,N/A,,Clear,260,2013-03-06 15:15:00
10:35 AM,55.4,28.4,36,30.08,10.0,West,13.8,23.0,N/A,,Clear,280,2013-03-06 15:35:00
10:55 AM,57.2,28.4,33,30.07,10.0,West,12.7,24.2,N/A,,Clear,280,2013-03-06 15:55:00
11:15 AM,59.0,28.4,31,30.06,10.0,West,15.0,25.3,N/A,,Clear,260,2013-03-06 16:15:00
11:35 AM,60.8,28.4,29,30.05,10.0,West,12.7,24.2,N/A,,Clear,270,2013-03-06 16:35:00
11:55 AM,60.8,28.4,29,30.04,10.0,West,11.5,21.9,N/A,,Clear,280,2013-03-06 16:55:00
12:15 PM,60.8,28.4,29,30.04,10.0,West,15.0,24.2,N/A,,Clear,270,2013-03-06 17:15:00
12:35 PM,62.6,28.4,27,30.03,10.0,West,17.3,21.9,N/A,,Clear,280,2013-03-06 17:35:00
12:55 PM,62.6,26.6,26,30.02,10.0,West,16.1,28.8,N/A,,Clear,270,2013-03-06 17:55:00
1:15 PM,64.4,24.8,22,30.01,10.0,WNW,18.4,27.6,N/A,,Clear,300,2013-03-06 18:15:00
1:35 PM,64.4,26.6,24,30.00,10.0,WNW,18.4,24.2,N/A,,Clear,300,2013-03-06 18:35:00
1:55 PM,64.4,24.8,22,29.99,10.0,WNW,18.4,24.2,N/A,,Clear,290,2013-03-06 18:55:00
2:15 PM,64.4,28.4,26,29.98,10.0,NW,13.8,25.3,N/A,,Clear,310,2013-03-06 19:15:00
2:35 PM,64.4,26.6,24,29.98,10.0,WNW,15.0,21.9,N/A,,Clear,290,2013-03-06 19:35:00
2:55 PM,66.2,26.6,23,29.98,10.0,WNW,10.4,23.0,N/A,,Clear,300,2013-03-06 19:55:00
3:15 PM,64.4,26.6,24,29.98,10.0,WNW,8.1,18.4,N/A,,Clear,290,2013-03-06 20:15:00
3:35 PM,64.4,24.8,22,29.97,10.0,WNW,12.7,20.7,N/A,,Clear,290,2013-03-06 20:35:00
3:55 PM,64.4,23.0,21,29.98,10.0,WNW,13.8,24.2,N/A,,Clear,300,2013-03-06 20:55:00
4:15 PM,64.4,23.0,21,29.97,10.0,West,12.7,21.9,N/A,,Clear,270,2013-03-06 21:15:00
4:35 PM,64.4,23.0,21,29.98,10.0,WNW,12.7,26.5,N/A,,Clear,290,2013-03-06 21:35:00
4:55 PM,64.4,23.0,21,29.98,10.0,WNW,13.8,19.6,N/A,,Clear,290,2013-03-06 21:55:00
5:15 PM,62.6,23.0,22,29.98,10.0,West,15.0,21.9,N/A,,Clear,270,2013-03-06 22:15:00
5:35 PM,62.6,24.8,24,29.99,10.0,WNW,11.5,19.6,N/A,,Clear,290,2013-03-06 22:35:00
5:55 PM,62.6,23.0,22,30.00,10.0,WNW,11.5,21.9,N/A,,Clear,300,2013-03-06 22:55:00
6:15 PM,60.8,26.6,27,30.01,10.0,WNW,11.5,-,N/A,,Clear,300,2013-03-06 23:15:00
6:35 PM,59.0,26.6,29,30.02,9.0,WNW,11.5,-,N/A,,Clear,290,2013-03-06 23:35:00
6:55 PM,59.0,26.6,29,30.04,10.0,WNW,8.1,-,N/A,,Clear,290,2013-03-06 23:55:00
7:15 PM,57.2,26.6,31,30.05,10.0,WNW,11.5,-,N/A,,Clear,290,2013-03-07 00:15:00
7:35 PM,57.2,28.4,33,30.06,10.0,NW,9.2,-,N/A,,Clear,310,2013-03-07 00:35:00
7:55 PM,55.4,30.2,38,30.07,10.0,NNW,6.9,-,N/A,,Clear,330,2013-03-07 00:55:00
8:15 PM,55.4,30.2,38,30.08,10.0,NNW,10.4,-,N/A,,Clear,330,2013-03-07 01:15:00
8:35 PM,53.6,30.2,41,30.09,10.0,NNW,11.5,-,N/A,,Clear,330,2013-03-07 01:35:00
8:55 PM,53.6,30.2,41,30.10,10.0,NW,9.2,-,N/A,,Clear,320,2013-03-07 01:55:00
9:35 PM,51.8,30.2,44,30.13,10.0,NW,9.2,-,N/A,,Clear,320,2013-03-07 02:35:00
9:55 PM,51.8,30.2,44,30.14,10.0,NW,10.4,17.3,N/A,,Clear,320,2013-03-07 02:55:00
10:15 PM,51.8,30.2,44,30.14,10.0,NNW,10.4,-,N/A,,Clear,330,2013-03-07 03:15:00
10:35 PM,50.0,30.2,47,30.16,10.0,NNW,9.2,-,N/A,,Clear,330,2013-03-07 03:35:00
10:55 PM,48.2,32.0,54,30.16,10.0,NW,8.1,-,N/A,,Clear,310,2013-03-07 03:55:00
11:15 PM,48.2,32.0,54,30.16,10.0,NW,9.2,-,N/A,,Clear,310,2013-03-07 04:15:00
11:35 PM,46.4,30.2,53,30.17,10.0,NW,5.8,-,N/A,,Clear,310,2013-03-07 04:35:00
11:55 PM,46.4,32.0,57,30.16,10.0,WNW,4.6,-,N/A,,Clear,300,2013-03-07 04:55:00